Vorticity
-2 35 -11 -10 -34 -16 -15 -11 15 9 6 -6 -3 -4 18 10 15 7 10 1 24 4
12 22 -5 8 -11 10 9 -21 30 5 12 -16 37 4 11 14 6 9 12 19 1 10
9 -14 12 28 31 18 10 48 -3 17 9 20 11 -3 1 5 7 9 6 6 4 6
11 10 5 -19 21 19 15 8 10 27 13 12 10 16 12 8 6 2 5 6 8 10
-0 4 14 16 9 9 9 7 6 10 8 5 6 6 6 6 5 6 9 8 7 9
9 8 1 14 12 11 13 8 10 7 7 7 5 4 5 7 9 9 8 10 9 6
8 1 11 14 10 6 5 5 5 3 3 6 8 9 9 8 8 9 8 5 6 7
11 12 8 5 6 5 5 6 7 9 10 8 7 7 8 7 5 6 7 5 6 7
8 6 6 5 4 7 9 9 6 5 6 7 6 5 4 5 5 5 7 7 6 7
4 5 6 6 6 4 4 5 6 7 6 4 4 6 7 6 7 7 5 7 7 8
7 7 8 9 9 9 8 7 6 6 6 6 6 7 7 8 9 8 8 6 5 5
2 5 4 4 6 7 7 7 8 8 10 12 11 8 5 3 4 9 4 6 6 3
4 5 9 8 7 9 9 9 7 4 3 2 1 4 6 5 5 7 7 5 6 6
11 9 4 0 0 -1 1 4 3 1 4 10 11 10 7 4 5 4 3 5 8 8
Height
5744 5747 5745 5746 5752 5753 5753 5753 5752 5752 5752 5751 5748 5749 5749 5749 5747 5744 5741 5740 5739 5737
5734 5738 5740 5740 5740 5742 5742 5742 5742 5740 5741 5741 5736 5739 5738 5737 5734 5731 5728 5727 5725 5723
5726 5728 5730 5733 5734 5734 5733 5732 5732 5730 5727 5729 5728 5727 5726 5725 5722 5719 5716 5714 5712 5710
5718 5720 5723 5724 5724 5723 5723 5723 5723 5721 5719 5717 5717 5715 5711 5710 5709 5708 5705 5703 5698 5696
5710 5710 5711 5714 5715 5713 5711 5712 5711 5709 5707 5706 5705 5702 5699 5697 5696 5694 5692 5689 5686 5682
5700 5701 5702 5703 5703 5702 5702 5701 5699 5698 5696 5695 5693 5690 5688 5685 5684 5681 5679 5676 5672 5666
5691 5693 5693 5693 5693 5694 5691 5690 5691 5688 5686 5683 5682 5678 5677 5673 5670 5668 5663 5660 5655 5652
5683 5683 5683 5683 5684 5684 5682 5680 5678 5676 5674 5672 5669 5665 5661 5658 5656 5651 5648 5644 5640 5634
5674 5674 5673 5673 5673 5671 5669 5667 5665 5663 5661 5658 5653 5649 5646 5643 5640 5635 5631 5626 5621 5616
5666 5665 5664 5663 5662 5660 5658 5656 5653 5650 5647 5642 5638 5635 5631 5628 5624 5619 5614 5609 5604 5597
5655 5655 5654 5652 5650 5648 5645 5642 5639 5635 5630 5626 5623 5620 5615 5612 5607 5602 5596 5591 5584 5578
5643 5642 5640 5638 5636 5633 5631 5628 5624 5620 5616 5613 5608 5604 5599 5594 5590 5584 5577 5571 5563 5557
5631 5630 5627 5625 5622 5619 5616 5613 5608 5604 5599 5594 5590 5585 5581 5577 5570 5565 5559 5552 5544 5536
5617 5614 5612 5609 5606 5603 5599 5596 5592 5588 5582 5577 5572 5566 5561 5556 5552 5546 5540 5533 5525 5516